N5ZPR Weather Reports


Display with metric or nautical units.
time (UTC)temp
F
wind
direction
speed
MPH
gust
MPH
rain 1hr
in
rain 24hr
in
rain mn
in
humidity
%
barometer
mb
20260906232003 98 149 0.0 0.0 0.00 0.00 0.00 39 1008.6
20260906231004 98 132 0.0 0.0 0.00 0.00 0.00 38 1008.6
20260906230004 99 51 0.0 0.0 0.00 0.00 0.00 37 1008.6
20260906225004 99 76 0.0 0.0 0.00 0.00 0.00 37 1008.6
20260906224004 99 177 0.0 0.0 0.00 0.00 0.00 38 1008.6
20260906223003 99 115 0.0 0.0 0.00 0.00 0.00 38 1008.6
20260906222003 100 110 0.0 0.0 0.00 0.00 0.00 37 1008.6
20260906220003 100 48 0.0 0.0 0.00 0.00 0.00 38 1008.8
20260906215004 100 147 0.0 0.0 0.00 0.00 0.00 38 1008.8
20260906214004 100 48 0.0 0.0 0.00 0.00 0.00 38 1009.0
20260906213003 100 42 0.0 0.0 0.00 0.00 0.00 38 1009.0
20260906211003 101 107 0.0 0.0 0.00 0.00 0.00 38 1009.3
20260906210003 100 136 0.0 0.0 0.00 0.00 0.00 39 1009.3
20260906205003 100 130 0.0 0.0 0.00 0.00 0.00 38 1009.3
20260906204004 100 111 0.0 0.0 0.00 0.00 0.00 39 1010.6
20260906203004 101 168 0.0 0.0 0.00 0.00 0.00 38 1010.6
20260906202003 100 189 0.0 0.0 0.00 0.00 0.00 40 1010.6
20260906201003 99 184 0.0 0.0 0.00 0.00 0.00 40 1010.6
20260906195004 100 121 0.0 0.0 0.00 0.00 0.00 40 1010.6
20260906194003 100 96 0.0 0.0 0.00 0.00 0.00 39 1010.6
20260906193003 99 107 0.0 0.0 0.00 0.00 0.00 42 1010.6
20260906192004 97 164 0.0 0.0 0.00 0.00 0.00 43 1010.6
20260906191004 98 116 0.0 0.0 0.00 0.00 0.00 43 1010.6
20260906190003 98 70 0.0 0.0 0.00 0.00 0.00 44 1010.6
20260906185004 100 48 0.0 0.0 0.00 0.00 0.00 41 1010.8
20260906183003 98 80 0.0 0.0 0.00 0.00 0.00 45 1011.3
20260906182003 96 52 0.0 0.0 0.00 0.00 0.00 47 1011.3
20260906181004 96 69 0.0 0.0 0.00 0.00 0.00 48 1011.3
20260906180004 96 64 0.0 0.0 0.00 0.00 0.00 47 1011.3
20260906175003 96 146 0.0 0.0 0.00 0.00 0.00 47 1012.2
20260906173004 96 125 0.0 0.0 0.00 0.00 0.00 47 1012.2
20260906172003 96 185 0.0 0.0 0.00 0.00 0.00 48 1012.2
20260906171003 95 130 0.0 0.0 0.00 0.00 0.00 49 1012.4
20260906170003 94 120 0.0 0.0 0.00 0.00 0.00 50 1012.4
20260906165003 94 40 0.0 0.0 0.00 0.00 0.00 51 1012.4
20260906164004 94 46 0.0 0.0 0.00 0.00 0.00 52 1012.4
20260906163004 93 13 0.0 0.0 0.00 0.00 0.00 52 1012.4
20260906162004 92 117 0.0 0.0 0.00 0.00 0.00 54 1012.4
20260906161003 93 37 0.0 0.0 0.00 0.00 0.00 56 1012.5
20260906155003 90 111 0.0 0.0 0.00 0.00 0.00 60 1012.5
20260906154004 90 42 0.0 0.0 0.00 0.00 0.00 61 1012.5
20260906152003 90 111 0.0 0.0 0.00 0.00 0.00 63 1012.3
20260906151004 89 136 0.0 0.0 0.00 0.00 0.00 65 1012.2
20260906150004 88 160 0.0 0.0 0.00 0.00 0.00 66 1012.2
20260906145003 87 177 0.0 0.0 0.00 0.00 0.00 69 1012.1
20260906144003 85 61 0.0 0.0 0.00 0.00 0.00 71 1012.1
20260906143005 84 138 0.0 0.0 0.00 0.00 0.00 74 1012.1
20260906142003 83 0 0.0 0.0 0.00 0.00 0.00 75 1012.1
20260906141004 82 0 0.0 0.0 0.00 0.00 0.00 76 1012.0
20260906140003 82 0 0.0 0.0 0.00 0.00 0.00 77 1012.0
20260906135004 82 0 0.0 0.0 0.00 0.00 0.00 78 1012.0
20260906134003 81 0 0.0 0.0 0.00 0.00 0.00 78 1012.0
20260906133004 80 0 0.0 0.0 0.00 0.00 0.00 80 1011.6
20260906132003 79 0 0.0 0.0 0.00 0.00 0.00 82 1011.6
20260906130003 79 0 0.0 0.0 0.00 0.00 0.00 82 1011.6
20260906124004 78 0 0.0 0.0 0.00 0.00 0.00 82 1011.6
20260906123004 78 0 0.0 0.0 0.00 0.00 0.00 82 1011.6
20260906122003 78 0 0.0 0.0 0.00 0.00 0.00 83 1011.3
20260906120004 77 0 0.0 0.0 0.00 0.00 0.00 84 1011.3
20260906115004 77 0 0.0 0.0 0.00 0.00 0.00 84 1011.1
20260906114004 78 0 0.0 0.0 0.00 0.00 0.00 83 1011.1
20260906112003 78 0 0.0 0.0 0.00 0.00 0.00 81 1010.9
20260906111003 78 0 0.0 0.0 0.00 0.00 0.00 82 1010.9
20260906110003 78 0 0.0 0.0 0.00 0.00 0.00 82 1010.8
20260906105003 78 0 0.0 0.0 0.00 0.00 0.00 82 1010.8
20260906104003 79 0 0.0 0.0 0.00 0.00 0.00 81 1010.6
20260906103004 79 0 0.0 0.0 0.00 0.00 0.00 80 1010.6
20260906102004 79 0 0.0 0.0 0.00 0.00 0.00 79 1010.6
20260906101003 79 0 0.0 0.0 0.00 0.00 0.00 81 1010.1
20260906100003 78 0 0.0 0.0 0.00 0.00 0.00 82 1010.1
20260906095003 78 0 0.0 0.0 0.00 0.00 0.00 82 1010.1
20260906094003 78 0 0.0 0.0 0.00 0.00 0.00 82 1010.1
20260906093003 78 0 0.0 0.0 0.00 0.00 0.00 81 1010.1
20260906092004 78 0 0.0 0.0 0.00 0.00 0.00 81 1009.9
20260906091003 79 0 0.0 0.0 0.00 0.00 0.00 80 1009.9
20260906090004 79 0 0.0 0.0 0.00 0.00 0.00 79 1009.9
20260906084004 80 0 0.0 0.0 0.00 0.00 0.00 78 1010.0
20260906083004 80 0 0.0 0.0 0.00 0.00 0.00 77 1010.0
20260906082003 80 0 0.0 0.0 0.00 0.00 0.00 77 1010.6
20260906080003 81 0 0.0 0.0 0.00 0.00 0.00 76 1010.6
20260906075003 81 0 0.0 0.0 0.00 0.00 0.00 75 1010.6
20260906074003 82 0 0.0 0.0 0.00 0.00 0.00 75 1010.6
20260906073003 82 0 0.0 0.0 0.00 0.00 0.00 75 1010.6
20260906072003 82 0 0.0 0.0 0.00 0.00 0.00 74 1010.6
20260906071004 82 0 0.0 0.0 0.00 0.00 0.00 74 1010.6
20260906070003 82 0 0.0 0.0 0.00 0.00 0.00 74 1010.6
20260906065003 83 0 0.0 0.0 0.00 0.00 0.00 73 1010.6
20260906064004 83 0 0.0 0.0 0.00 0.00 0.00 73 1010.6
20260906063004 83 0 0.0 0.0 0.00 0.00 0.00 73 1010.7
20260906062003 83 0 0.0 0.0 0.00 0.00 0.00 72 1010.8
20260906061003 83 0 0.0 0.0 0.00 0.00 0.00 72 1010.8
20260906060004 84 0 0.0 0.0 0.00 0.00 0.00 72 1010.5
20260906054003 85 0 0.0 0.0 0.00 0.00 0.00 70 1010.5
20260906052003 84 0 0.0 0.0 0.00 0.00 0.00 71 1010.4
20260906051004 85 0 0.0 0.0 0.00 0.00 0.00 70 1010.4
20260906050004 85 0 0.0 0.0 0.00 0.00 0.00 70 1010.4
20260906045003 85 0 0.0 0.0 0.00 0.00 0.00 69 1010.4
20260906044003 85 0 0.0 0.0 0.00 0.00 0.00 69 1010.4
20260906043003 86 0 0.0 0.0 0.00 0.00 0.00 68 1010.4
20260906042003 86 0 0.0 0.0 0.00 0.00 0.00 68 1010.4
20260906041003 86 0 0.0 0.0 0.00 0.00 0.00 67 1010.4
20260906040003 86 0 0.0 0.0 0.00 0.00 0.00 67 1010.4
20260906033004 87 140 0.0 0.0 0.00 0.00 0.00 65 1010.5
20260906031004 87 153 0.0 0.0 0.00 0.00 0.00 63 1010.5
20260906030004 87 121 0.0 0.0 0.00 0.00 0.00 62 1009.2
20260906025003 88 115 0.0 0.0 0.00 0.00 0.00 61 1009.2
20260906024004 88 157 0.0 0.0 0.00 0.00 0.00 61 1009.2
20260906023004 89 115 0.0 0.0 0.00 0.00 0.00 60 1009.2
20260906022004 88 133 0.0 0.0 0.00 0.00 0.00 61 1009.2
20260906021004 88 131 0.0 0.0 0.00 0.00 0.00 60 1009.2
20260906020004 89 155 0.0 0.0 0.00 0.00 0.00 59 1009.2
20260906014003 90 115 0.0 0.0 0.00 0.00 0.00 58 1009.2
20260906013003 90 150 0.0 0.0 0.00 0.00 0.00 56 1009.2
20260906012003 91 115 0.0 0.0 0.00 0.00 0.00 55 1008.5
20260906011003 92 132 0.0 0.0 0.00 0.00 0.00 53 1008.5
20260906005003 94 123 0.0 2.0 0.00 0.00 0.00 47 1008.5
20260906004003 97 130 0.0 0.0 0.00 0.00 0.00 41 1008.5
20260906003003 96 152 0.0 1.0 0.00 0.00 0.00 41 1008.5
20260906002004 97 114 0.0 1.0 0.00 0.00 0.00 40 1008.3
20260906000003 98 88 0.0 1.0 0.00 0.00 0.00 39 1008.1
20260905235003 98 167 0.0 0.0 0.00 0.00 0.00 38 1008.1